• In Sweden
  • List of Countries
  • For 7 days
  • Water Temperature
  • Satellite Maps
  • Weather Map
  • Weather Widgets
  • user-avatar
    Login

    Hourly Weather Novyy

    Today, 22 October, Monday

    Time Temperature Precipitation Wind Pressure Humidity
    00:00 +3°C° 0 mm 1 mps 749 mmHg 83%
    01:00 +3°C° 0 mm 1 mps 748 mmHg 85%
    02:00 +2°C° 0 mm 1 mps 748 mmHg 86%
    03:00 +2°C° 0 mm 1 mps 748 mmHg 87%
    04:00 +2°C° 0 mm 1 mps 748 mmHg 88%
    05:00 +2°C° 0 mm 1 mps 748 mmHg 89%
    06:00 +1°C° 0 mm 2 mps 748 mmHg 87%
    07:00 +2°C° 0 mm 2 mps 747 mmHg 85%
    08:00 +2°C° 0 mm 2 mps 747 mmHg 83%
    09:00 +2°C° 0 mm 3 mps 747 mmHg 78%
    10:00 +4°C° 0 mm 3 mps 746 mmHg 73%
    11:00 +5°C° 0 mm 3 mps 746 mmHg 67%
    12:00 +6°C° 0 mm 4 mps 745 mmHg 66%
    13:00 +6°C° 0 mm 4 mps 745 mmHg 64%
    14:00 +7°C° 0 mm 4 mps 744 mmHg 63%
    15:00 +6°C° 0 mm 4 mps 743 mmHg 68%
    16:00 +5°C° 0 mm 4 mps 743 mmHg 73%
    17:00 +4°C° 0 mm 3 mps 742 mmHg 78%
    18:00 +3°C° 0 mm 3 mps 742 mmHg 79%
    19:00 +3°C° 0 mm 4 mps 741 mmHg 80%
    20:00 +3°C° 0 mm 4 mps 741 mmHg 81%
    21:00 +3°C° 0 mm 4 mps 740 mmHg 82%
    22:00 +3°C° 0 mm 4 mps 739 mmHg 83%
    23:00 +1°C° 0 mm 4 mps 739 mmHg 84%

    Tomorrow, 23 October, Tuesday

    Time Temperature Precipitation Wind Pressure Humidity
    00:00 +1°C° 0 mm 4 mps 738 mmHg 85%
    01:00 +1°C° 0 mm 4 mps 738 mmHg 87%
    02:00 +1°C° 0 mm 4 mps 737 mmHg 89%
    03:00 +1°C° 0.4 mm 4 mps 737 mmHg 90%
    04:00 +3°C° 0.4 mm 3 mps 736 mmHg 91%
    05:00 +3°C° 0.4 mm 3 mps 736 mmHg 92%
    06:00 +3°C° 0.2 mm 3 mps 736 mmHg 92%
    07:00 +3°C° 0.2 mm 3 mps 736 mmHg 92%
    08:00 +4°C° 0.2 mm 3 mps 735 mmHg 93%
    09:00 +5°C° 0 mm 2 mps 735 mmHg 86%
    10:00 +6°C° 0 mm 2 mps 735 mmHg 80%
    11:00 +7°C° 0 mm 2 mps 735 mmHg 74%
    12:00 +7°C° 0 mm 2 mps 734 mmHg 71%
    13:00 +7°C° 0 mm 2 mps 734 mmHg 68%
    14:00 +7°C° 0 mm 2 mps 733 mmHg 65%
    15:00 +7°C° 0 mm 1 mps 732 mmHg 70%
    16:00 +6°C° 0 mm 1 mps 732 mmHg 74%
    17:00 +6°C° 0 mm 1 mps 731 mmHg 79%
    18:00 +5°C° 0 mm 1 mps 731 mmHg 81%
    19:00 +4°C° 0 mm 2 mps 730 mmHg 82%
    20:00 +4°C° 0 mm 2 mps 729 mmHg 84%
    21:00 +3°C° 0 mm 2 mps 729 mmHg 85%
    22:00 +3°C° 0 mm 2 mps 728 mmHg 86%
    23:00 +3°C° 0 mm 2 mps 727 mmHg 87%

    Day after tomorrow, 24 October, Wednesday

    Time Temperature Precipitation Wind Pressure Humidity
    00:00 +3°C° 0 mm 2 mps 726 mmHg 88%
    01:00 +3°C° 0 mm 2 mps 726 mmHg 89%
    02:00 +1°C° 0 mm 3 mps 725 mmHg 90%
    03:00 +1°C° 0 mm 3 mps 724 mmHg 90%
    04:00 +1°C° 0 mm 3 mps 723 mmHg 90%
    05:00 +1°C° 0 mm 3 mps 722 mmHg 90%
    06:00 0°C° 0.1 mm 4 mps 721 mmHg 88%
    07:00 +1°C° 0.1 mm 4 mps 721 mmHg 86%
    08:00 +1°C° 0.1 mm 4 mps 720 mmHg 84%
    09:00 +2°C° 0.3 mm 5 mps 720 mmHg 83%
    10:00 +2°C° 0.3 mm 5 mps 720 mmHg 82%
    11:00 +3°C° 0.3 mm 5 mps 719 mmHg 82%
    12:00 +3°C° 0.4 mm 5 mps 719 mmHg 83%
    13:00 +4°C° 0.4 mm 4 mps 719 mmHg 84%
    14:00 +4°C° 0.4 mm 4 mps 719 mmHg 84%
    15:00 +4°C° 0.4 mm 4 mps 719 mmHg 86%
    16:00 +4°C° 0.4 mm 3 mps 719 mmHg 88%
    17:00 +3°C° 0.4 mm 3 mps 719 mmHg 90%
    18:00 +3°C° 0.1 mm 3 mps 720 mmHg 91%
    19:00 +4°C° 0.1 mm 2 mps 720 mmHg 92%
    20:00 +4°C° 0.1 mm 2 mps 720 mmHg 93%
    21:00 +4°C° 0.1 mm 2 mps 720 mmHg 94%
    22:00 +4°C° 0.1 mm 2 mps 720 mmHg 94%
    23:00 +3°C° 0.1 mm 2 mps 721 mmHg 95%

    25 October, Thursday

    Time Temperature Precipitation Wind Pressure Humidity
    00:00 +3°C° 0 mm 2 mps 721 mmHg 95%
    01:00 +3°C° 0 mm 2 mps 721 mmHg 95%
    02:00 +2°C° 0 mm 3 mps 721 mmHg 95%
    03:00 +3°C° 0.1 mm 3 mps 721 mmHg 94%
    04:00 +3°C° 0.1 mm 3 mps 721 mmHg 93%
    05:00 +3°C° 0.1 mm 4 mps 720 mmHg 93%
    06:00 +3°C° 0.2 mm 4 mps 720 mmHg 91%
    07:00 +2°C° 0.2 mm 5 mps 720 mmHg 89%
    08:00 +2°C° 0.2 mm 6 mps 720 mmHg 88%
    09:00 +2°C° 0.3 mm 6 mps 719 mmHg 86%
    10:00 +2°C° 0.3 mm 7 mps 719 mmHg 85%
    11:00 +2°C° 0.3 mm 7 mps 718 mmHg 84%
    12:00 +2°C° 0.3 mm 7 mps 718 mmHg 83%
    13:00 +2°C° 0.3 mm 7 mps 717 mmHg 81%
    14:00 +1°C° 0.3 mm 8 mps 717 mmHg 80%
    15:00 +1°C° 0.5 mm 8 mps 717 mmHg 80%
    16:00 0°C° 0.5 mm 8 mps 717 mmHg 80%
    17:00 0°C° 0.5 mm 7 mps 718 mmHg 79%
    18:00 0°C° 0.3 mm 7 mps 718 mmHg 80%
    19:00 0°C° 0.3 mm 7 mps 718 mmHg 80%
    20:00 -1°C° 0.3 mm 7 mps 718 mmHg 80%
    21:00 -1°C° 0.2 mm 7 mps 719 mmHg 81%
    22:00 -1°C° 0.2 mm 6 mps 720 mmHg 81%
    23:00 -1°C° 0.2 mm 6 mps 720 mmHg 81%

    26 October, Friday

    Time Temperature Precipitation Wind Pressure Humidity
    00:00 -2°C° 0 mm 6 mps 721 mmHg 81%
    01:00 -2°C° 0 mm 6 mps 722 mmHg 81%
    02:00 -2°C° 0 mm 6 mps 722 mmHg 81%
    03:00 -2°C° 0 mm 5 mps 723 mmHg 82%
    04:00 -2°C° 0 mm 5 mps 724 mmHg 84%
    05:00 -2°C° 0 mm 5 mps 724 mmHg 85%
    06:00 -2°C° 0 mm 5 mps 725 mmHg 85%
    07:00 -2°C° 0 mm 5 mps 725 mmHg 85%
    08:00 -1°C° 0 mm 5 mps 726 mmHg 85%
    09:00 -1°C° 0 mm 5 mps 727 mmHg 83%
    10:00 0°C° 0 mm 5 mps 727 mmHg 81%
    11:00 +1°C° 0 mm 5 mps 728 mmHg 79%
    12:00 +1°C° 0 mm 5 mps 728 mmHg 79%
    13:00 +1°C° 0 mm 5 mps 729 mmHg 79%
    14:00 +1°C° 0 mm 5 mps 729 mmHg 79%
    15:00 +1°C° 0 mm 4 mps 730 mmHg 80%
    16:00 0°C° 0 mm 4 mps 730 mmHg 81%
    17:00 0°C° 0 mm 4 mps 731 mmHg 82%
    18:00 0°C° 0 mm 4 mps 732 mmHg 82%
    19:00 0°C° 0 mm 4 mps 732 mmHg 82%
    20:00 0°C° 0 mm 3 mps 733 mmHg 83%
    21:00 0°C° 0 mm 3 mps 733 mmHg 82%
    22:00 0°C° 0 mm 3 mps 734 mmHg 82%
    23:00 0°C° 0 mm 3 mps 735 mmHg 81%

    27 October, Saturday

    Time Temperature Precipitation Wind Pressure Humidity
    00:00 -1°C° 0 mm 3 mps 735 mmHg 84%
    01:00 -2°C° 0 mm 2 mps 735 mmHg 87%
    02:00 -2°C° 0 mm 2 mps 736 mmHg 90%
    03:00 -2°C° 0 mm 2 mps 736 mmHg 91%
    04:00 -2°C° 0 mm 2 mps 736 mmHg 92%
    05:00 -2°C° 0 mm 2 mps 737 mmHg 93%
    06:00 -2°C° 0 mm 3 mps 737 mmHg 90%
    07:00 -1°C° 0 mm 3 mps 737 mmHg 88%
    08:00 -1°C° 0 mm 4 mps 737 mmHg 86%
    09:00 0°C° 0 mm 4 mps 736 mmHg 82%
    10:00 +1°C° 0 mm 5 mps 736 mmHg 77%
    11:00 +3°C° 0 mm 5 mps 736 mmHg 73%
    12:00 +3°C° 0.1 mm 5 mps 736 mmHg 76%
    13:00 +3°C° 0.1 mm 5 mps 735 mmHg 78%
    14:00 +3°C° 0.1 mm 5 mps 735 mmHg 80%
    15:00 +3°C° 0.1 mm 5 mps 735 mmHg 83%
    16:00 +3°C° 0.1 mm 5 mps 735 mmHg 85%
    17:00 +3°C° 0.1 mm 5 mps 735 mmHg 87%
    18:00 +4°C° 0 mm 4 mps 735 mmHg 87%
    19:00 +4°C° 0 mm 4 mps 735 mmHg 87%
    20:00 +4°C° 0 mm 4 mps 736 mmHg 86%
    21:00 +4°C° 0 mm 3 mps 736 mmHg 88%
    22:00 +3°C° 0 mm 3 mps 736 mmHg 90%
    23:00 +3°C° 0 mm 3 mps 736 mmHg 91%

    28 October, Sunday

    Time Temperature Precipitation Wind Pressure Humidity
    00:00 +3°C° 0 mm 2 mps 736 mmHg 93%
    01:00 +3°C° 0 mm 2 mps 736 mmHg 94%
    02:00 +3°C° 0 mm 2 mps 736 mmHg 95%
    03:00 +3°C° 0 mm 2 mps 736 mmHg 95%
    04:00 +3°C° 0 mm 2 mps 736 mmHg 96%
    05:00 +3°C° 0 mm 2 mps 736 mmHg 96%
    06:00 +4°C° 0.1 mm 2 mps 735 mmHg 96%
    07:00 +4°C° 0.1 mm 3 mps 735 mmHg 96%
    08:00 +5°C° 0.1 mm 3 mps 735 mmHg 96%
    09:00 +6°C° 0.5 mm 4 mps 735 mmHg 94%
    10:00 +7°C° 0.5 mm 4 mps 734 mmHg 92%
    11:00 +8°C° 0.5 mm 5 mps 734 mmHg 90%
    12:00 +9°C° 0.1 mm 5 mps 734 mmHg 87%
    13:00 +10°C° 0.1 mm 6 mps 733 mmHg 84%
    14:00 +11°C° 0.1 mm 6 mps 733 mmHg 82%
    15:00 +10°C° 0 mm 6 mps 733 mmHg 83%
    16:00 +10°C° 0 mm 5 mps 733 mmHg 85%
    17:00 +10°C° 0 mm 5 mps 733 mmHg 86%
    18:00 +10°C° 0 mm 5 mps 733 mmHg 85%
    19:00 +10°C° 0 mm 5 mps 733 mmHg 83%
    20:00 +10°C° 0 mm 5 mps 733 mmHg 82%
    21:00 +10°C° 0 mm 5 mps 734 mmHg 83%
    22:00 +10°C° 0 mm 5 mps 734 mmHg 84%
    23:00 +10°C° 0 mm 5 mps 735 mmHg 84%
    Show more